STARLINK-34394

Satellite information

Favourite Embed

Satellite Type and Status

PAYLOADIN ORBIT

Key statistics

Satellite STARLINK-34394 at a glance.

Uptime

20

Days in orbit

Revolutions

≈ 15.5

Per day

Orbit

LEO

Low Earth Orbit

Inclination

53.2

Latest

Satellite identification and parameters

Extended collection of information and parameters for STARLINK-34394.

Object identification

Identified? True

Debris? False

Object name: STARLINK-34394

International designator: 2025-139F

Object number (NORAD): 64669

Object ID (CCSDS): 64669

Country: UNITED STATES OF AMERICA (US)

Current information (Y/N): Y

RCS size: LARGE

Orbital parameters

Period: 92.943 minutes

Inclination: 53.1595 deg

SMA: 6796.785 km

Apoapsis: 418.888 km

Periapsis: 418.411 km

RAAN: 141.4183 deg

Eccentricy: 0.0000351

Argument of periapsis: 55.9339 deg

Mean anomaly: 304.1703 deg

Mean motion: 15.4934264 rev/day

Mean motion (dot): 0.00087461 rev/day2

B* drag term: 0.0015612 1/REarth

Two-line elements (TLE)

Creation date: July 18, 2025, 2:44 a.m.

Reference frame: TEME

Reference center: EARTH

Epoch: July 17, 2025, 9:43 p.m. UTC

TLE line 0: 0 STARLINK-34394

TLE line 1: 1 64669U 25139F 25198.90497891 .00087461 00000-0 15612-2 0 9996

TLE line 2: 2 64669 53.1595 141.4183 0000351 55.9339 304.1703 15.49342640 4286

Live tracking on map

Real-time ground track for satellite STARLINK-34394.

In-orbit conjunctions

There are no conjunctions computed for STARLINK-34394, at the moment. Check back to stay up to date, as we update our databases every day.

Go to all conjunctions

Associated space launch

A batch of 27 satellites for the Starlink mega-constellation - SpaceX's project for space-based Internet communication system.

STARLINK-34394 was lifted into orbit during the mission ‘Falcon 9 Block 5 | Starlink Group 10-34’, on board a Falcon 9 space rocket.

The launch took place on June 28, 2025, 4:26 a.m. from Space Launch Complex 40.

For more information about the launch, click the button.

Launch to space Falcon 9 Block 5 | Starlink Group 10-34
Falcon 9 Block 5 | Starlink Group 10-34

Agency: SpaceX

Status: Launch Successful

Launch date: June 28, 2025, 4:26 a.m. UTC

Rocket: Falcon 9

Launch pad: Space Launch Complex 40

Location: Cape Canaveral SFS, FL, USA

...

Latest news about this satellite

News about space launch
Live coverage: SpaceX to launch 27 Starlink satellites on Falcon 9 rocket from Cape Canaveral

The Starlink 10-34 mission will be SpaceX’s 80s Falcon 9 launch of the year. The company is targeting liftoff from pad 40 at 12:26 a.m. EDT (0426 UTC).

News about space launch
Launch Roundup: Launch manifest remains busy as 2025’s halfway point approaches

With summer and winter for the Northern and Southern Hemispheres now in full swing, the… The post Launch Roundup: Launch manifest remains busy as 2025’s halfway point approaches appeared first on NASASpaceFlight.com.


Newsletter sign-up

Weekly statistics, charts and insights to help you stay on top of the space industry.